Index of /20260430/WXO-DD/model_gdps/15km/00/150
Name Last modified Size Description
Parent Directory -
20260430T00Z_MSC_GDPS_AbsoluteVorticity_IsbL-0200_LatLon0.15_PT150H.grib2 2026-04-30 04:36 1.2M
20260430T00Z_MSC_GDPS_AbsoluteVorticity_IsbL-0250_LatLon0.15_PT150H.grib2 2026-04-30 04:36 1.3M
20260430T00Z_MSC_GDPS_AbsoluteVorticity_IsbL-0500_LatLon0.15_PT150H.grib2 2026-04-30 04:36 1.5M
20260430T00Z_MSC_GDPS_AbsoluteVorticity_IsbL-0700_LatLon0.15_PT150H.grib2 2026-04-30 04:36 1.6M
20260430T00Z_MSC_GDPS_AbsoluteVorticity_IsbL-0850_LatLon0.15_PT150H.grib2 2026-04-30 04:36 1.6M
20260430T00Z_MSC_GDPS_AirTemp-Max_AGL-2m_LatLon0.15_PT150H.grib2 2026-04-30 04:36 740K
20260430T00Z_MSC_GDPS_AirTemp-Min_AGL-2m_LatLon0.15_PT150H.grib2 2026-04-30 04:36 783K
20260430T00Z_MSC_GDPS_AirTemp_AGL-120m_LatLon0.15_PT150H.grib2 2026-04-30 04:36 900K
20260430T00Z_MSC_GDPS_AirTemp_AGL-2m_LatLon0.15_PT150H.grib2 2026-04-30 04:36 1.0M
20260430T00Z_MSC_GDPS_AirTemp_AGL-40m_LatLon0.15_PT150H.grib2 2026-04-30 04:36 801K
20260430T00Z_MSC_GDPS_AirTemp_AGL-80m_LatLon0.15_PT150H.grib2 2026-04-30 04:36 907K
20260430T00Z_MSC_GDPS_AirTemp_IsbL-0001_LatLon0.15_PT150H.grib2 2026-04-30 04:36 656K
20260430T00Z_MSC_GDPS_AirTemp_IsbL-0005_LatLon0.15_PT150H.grib2 2026-04-30 04:36 684K
20260430T00Z_MSC_GDPS_AirTemp_IsbL-0010_LatLon0.15_PT150H.grib2 2026-04-30 04:36 696K
20260430T00Z_MSC_GDPS_AirTemp_IsbL-0020_LatLon0.15_PT150H.grib2 2026-04-30 04:36 786K
20260430T00Z_MSC_GDPS_AirTemp_IsbL-0030_LatLon0.15_PT150H.grib2 2026-04-30 04:36 749K
20260430T00Z_MSC_GDPS_AirTemp_IsbL-0050_LatLon0.15_PT150H.grib2 2026-04-30 04:36 802K
20260430T00Z_MSC_GDPS_AirTemp_IsbL-0100_LatLon0.15_PT150H.grib2 2026-04-30 04:36 958K
20260430T00Z_MSC_GDPS_AirTemp_IsbL-0150_LatLon0.15_PT150H.grib2 2026-04-30 04:36 961K
20260430T00Z_MSC_GDPS_AirTemp_IsbL-0175_LatLon0.15_PT150H.grib2 2026-04-30 04:36 953K
20260430T00Z_MSC_GDPS_AirTemp_IsbL-0200_LatLon0.15_PT150H.grib2 2026-04-30 04:36 1.0M
20260430T00Z_MSC_GDPS_AirTemp_IsbL-0225_LatLon0.15_PT150H.grib2 2026-04-30 04:36 969K
20260430T00Z_MSC_GDPS_AirTemp_IsbL-0250_LatLon0.15_PT150H.grib2 2026-04-30 04:36 1.0M
20260430T00Z_MSC_GDPS_AirTemp_IsbL-0275_LatLon0.15_PT150H.grib2 2026-04-30 04:36 1.0M
20260430T00Z_MSC_GDPS_AirTemp_IsbL-0300_LatLon0.15_PT150H.grib2 2026-04-30 04:36 1.0M
20260430T00Z_MSC_GDPS_AirTemp_IsbL-0350_LatLon0.15_PT150H.grib2 2026-04-30 04:36 920K
20260430T00Z_MSC_GDPS_AirTemp_IsbL-0400_LatLon0.15_PT150H.grib2 2026-04-30 04:36 937K
20260430T00Z_MSC_GDPS_AirTemp_IsbL-0450_LatLon0.15_PT150H.grib2 2026-04-30 04:36 959K
20260430T00Z_MSC_GDPS_AirTemp_IsbL-0500_LatLon0.15_PT150H.grib2 2026-04-30 04:36 1.0M
20260430T00Z_MSC_GDPS_AirTemp_IsbL-0550_LatLon0.15_PT150H.grib2 2026-04-30 04:36 1.0M
20260430T00Z_MSC_GDPS_AirTemp_IsbL-0600_LatLon0.15_PT150H.grib2 2026-04-30 04:36 885K
20260430T00Z_MSC_GDPS_AirTemp_IsbL-0650_LatLon0.15_PT150H.grib2 2026-04-30 04:36 912K
20260430T00Z_MSC_GDPS_AirTemp_IsbL-0700_LatLon0.15_PT150H.grib2 2026-04-30 04:36 950K
20260430T00Z_MSC_GDPS_AirTemp_IsbL-0750_LatLon0.15_PT150H.grib2 2026-04-30 04:36 1.0M
20260430T00Z_MSC_GDPS_AirTemp_IsbL-0800_LatLon0.15_PT150H.grib2 2026-04-30 04:36 1.1M
20260430T00Z_MSC_GDPS_AirTemp_IsbL-0850_LatLon0.15_PT150H.grib2 2026-04-30 04:36 1.1M
20260430T00Z_MSC_GDPS_AirTemp_IsbL-0875_LatLon0.15_PT150H.grib2 2026-04-30 04:36 1.2M
20260430T00Z_MSC_GDPS_AirTemp_IsbL-0900_LatLon0.15_PT150H.grib2 2026-04-30 04:36 1.2M
20260430T00Z_MSC_GDPS_AirTemp_IsbL-0925_LatLon0.15_PT150H.grib2 2026-04-30 04:36 1.1M
20260430T00Z_MSC_GDPS_AirTemp_IsbL-0950_LatLon0.15_PT150H.grib2 2026-04-30 04:36 1.1M
20260430T00Z_MSC_GDPS_AirTemp_IsbL-0970_LatLon0.15_PT150H.grib2 2026-04-30 04:36 1.1M
20260430T00Z_MSC_GDPS_AirTemp_IsbL-0985_LatLon0.15_PT150H.grib2 2026-04-30 04:36 1.1M
20260430T00Z_MSC_GDPS_AirTemp_IsbL-1000_LatLon0.15_PT150H.grib2 2026-04-30 04:36 1.1M
20260430T00Z_MSC_GDPS_AirTemp_IsbL-1015_LatLon0.15_PT150H.grib2 2026-04-30 04:36 1.1M
20260430T00Z_MSC_GDPS_Albedo_Sfc_LatLon0.15_PT150H.grib2 2026-04-30 04:36 244K
20260430T00Z_MSC_GDPS_CAPE_Sfc_LatLon0.15_PT150H.grib2 2026-04-30 04:36 3.9M
20260430T00Z_MSC_GDPS_CIN_Sfc_LatLon0.15_PT150H.grib2 2026-04-30 04:36 2.9M
20260430T00Z_MSC_GDPS_CloudWater_EAtm_LatLon0.15_PT150H.grib2 2026-04-30 04:36 530K
20260430T00Z_MSC_GDPS_ConvectivePrecip-Accum_Sfc_LatLon0.15_PT150H.grib2 2026-04-30 04:36 3.7M
20260430T00Z_MSC_GDPS_DewPointDepression_AGL-2m_LatLon0.15_PT150H.grib2 2026-04-30 04:36 766K
20260430T00Z_MSC_GDPS_DewPointDepression_IsbL-0010_LatLon0.15_PT150H.grib2 2026-04-30 04:36 74K
20260430T00Z_MSC_GDPS_DewPointDepression_IsbL-0020_LatLon0.15_PT150H.grib2 2026-04-30 04:36 68K
20260430T00Z_MSC_GDPS_DewPointDepression_IsbL-0030_LatLon0.15_PT150H.grib2 2026-04-30 04:36 88K
20260430T00Z_MSC_GDPS_DewPointDepression_IsbL-0050_LatLon0.15_PT150H.grib2 2026-04-30 04:36 377K
20260430T00Z_MSC_GDPS_DewPointDepression_IsbL-0100_LatLon0.15_PT150H.grib2 2026-04-30 04:36 393K
20260430T00Z_MSC_GDPS_DewPointDepression_IsbL-0150_LatLon0.15_PT150H.grib2 2026-04-30 04:36 482K
20260430T00Z_MSC_GDPS_DewPointDepression_IsbL-0175_LatLon0.15_PT150H.grib2 2026-04-30 04:36 590K
20260430T00Z_MSC_GDPS_DewPointDepression_IsbL-0200_LatLon0.15_PT150H.grib2 2026-04-30 04:36 682K
20260430T00Z_MSC_GDPS_DewPointDepression_IsbL-0225_LatLon0.15_PT150H.grib2 2026-04-30 04:36 758K
20260430T00Z_MSC_GDPS_DewPointDepression_IsbL-0250_LatLon0.15_PT150H.grib2 2026-04-30 04:36 850K
20260430T00Z_MSC_GDPS_DewPointDepression_IsbL-0275_LatLon0.15_PT150H.grib2 2026-04-30 04:36 871K
20260430T00Z_MSC_GDPS_DewPointDepression_IsbL-0300_LatLon0.15_PT150H.grib2 2026-04-30 04:36 916K
20260430T00Z_MSC_GDPS_DewPointDepression_IsbL-0350_LatLon0.15_PT150H.grib2 2026-04-30 04:36 950K
20260430T00Z_MSC_GDPS_DewPointDepression_IsbL-0400_LatLon0.15_PT150H.grib2 2026-04-30 04:36 1.0M
20260430T00Z_MSC_GDPS_DewPointDepression_IsbL-0450_LatLon0.15_PT150H.grib2 2026-04-30 04:36 1.0M
20260430T00Z_MSC_GDPS_DewPointDepression_IsbL-0500_LatLon0.15_PT150H.grib2 2026-04-30 04:36 1.0M
20260430T00Z_MSC_GDPS_DewPointDepression_IsbL-0550_LatLon0.15_PT150H.grib2 2026-04-30 04:36 1.0M
20260430T00Z_MSC_GDPS_DewPointDepression_IsbL-0600_LatLon0.15_PT150H.grib2 2026-04-30 04:36 1.0M
20260430T00Z_MSC_GDPS_DewPointDepression_IsbL-0650_LatLon0.15_PT150H.grib2 2026-04-30 04:36 1.0M
20260430T00Z_MSC_GDPS_DewPointDepression_IsbL-0700_LatLon0.15_PT150H.grib2 2026-04-30 04:36 1.1M
20260430T00Z_MSC_GDPS_DewPointDepression_IsbL-0750_LatLon0.15_PT150H.grib2 2026-04-30 04:36 1.1M
20260430T00Z_MSC_GDPS_DewPointDepression_IsbL-0800_LatLon0.15_PT150H.grib2 2026-04-30 04:36 1.1M
20260430T00Z_MSC_GDPS_DewPointDepression_IsbL-0850_LatLon0.15_PT150H.grib2 2026-04-30 04:36 1.1M
20260430T00Z_MSC_GDPS_DewPointDepression_IsbL-0875_LatLon0.15_PT150H.grib2 2026-04-30 04:36 1.1M
20260430T00Z_MSC_GDPS_DewPointDepression_IsbL-0900_LatLon0.15_PT150H.grib2 2026-04-30 04:36 1.1M
20260430T00Z_MSC_GDPS_DewPointDepression_IsbL-0925_LatLon0.15_PT150H.grib2 2026-04-30 04:36 1.0M
20260430T00Z_MSC_GDPS_DewPointDepression_IsbL-0950_LatLon0.15_PT150H.grib2 2026-04-30 04:36 1.0M
20260430T00Z_MSC_GDPS_DewPointDepression_IsbL-0970_LatLon0.15_PT150H.grib2 2026-04-30 04:36 1.0M
20260430T00Z_MSC_GDPS_DewPointDepression_IsbL-0985_LatLon0.15_PT150H.grib2 2026-04-30 04:36 1.0M
20260430T00Z_MSC_GDPS_DewPointDepression_IsbL-1000_LatLon0.15_PT150H.grib2 2026-04-30 04:36 968K
20260430T00Z_MSC_GDPS_DewPointDepression_IsbL-1015_LatLon0.15_PT150H.grib2 2026-04-30 04:36 914K
20260430T00Z_MSC_GDPS_DewPoint_AGL-2m_LatLon0.15_PT150H.grib2 2026-04-30 04:36 602K
20260430T00Z_MSC_GDPS_DownwardLongwaveRadiationFlux-Accum_Sfc_LatLon0.15_PT150H.grib2 2026-04-30 04:36 617K
20260430T00Z_MSC_GDPS_DownwardShortwaveRadiationFlux-Accum_NTAtm_LatLon0.15_PT150H.grib2 2026-04-30 04:36 191K
20260430T00Z_MSC_GDPS_DownwardShortwaveRadiationFlux-Accum_Sfc_LatLon0.15_PT150H.grib2 2026-04-30 04:36 799K
20260430T00Z_MSC_GDPS_FreezingRain-Accum12h_Sfc_LatLon0.15_PT150H.grib2 2026-04-30 04:36 88K
20260430T00Z_MSC_GDPS_FreezingRain-Accum24h_Sfc_LatLon0.15_PT150H.grib2 2026-04-30 04:36 124K
20260430T00Z_MSC_GDPS_FreezingRain-Accum3h_Sfc_LatLon0.15_PT150H.grib2 2026-04-30 04:36 33K
20260430T00Z_MSC_GDPS_FreezingRain-Accum6h_Sfc_LatLon0.15_PT150H.grib2 2026-04-30 04:36 55K
20260430T00Z_MSC_GDPS_FreezingRain-Accum_Sfc_LatLon0.15_PT150H.grib2 2026-04-30 04:36 380K
20260430T00Z_MSC_GDPS_GeopotentialHeight_IsbL-0001_LatLon0.15_PT150H.grib2 2026-04-30 04:36 431K
20260430T00Z_MSC_GDPS_GeopotentialHeight_IsbL-0005_LatLon0.15_PT150H.grib2 2026-04-30 04:36 481K
20260430T00Z_MSC_GDPS_GeopotentialHeight_IsbL-0010_LatLon0.15_PT150H.grib2 2026-04-30 04:36 471K
20260430T00Z_MSC_GDPS_GeopotentialHeight_IsbL-0020_LatLon0.15_PT150H.grib2 2026-04-30 04:36 414K
20260430T00Z_MSC_GDPS_GeopotentialHeight_IsbL-0030_LatLon0.15_PT150H.grib2 2026-04-30 04:36 567K
20260430T00Z_MSC_GDPS_GeopotentialHeight_IsbL-0050_LatLon0.15_PT150H.grib2 2026-04-30 04:36 564K
20260430T00Z_MSC_GDPS_GeopotentialHeight_IsbL-0100_LatLon0.15_PT150H.grib2 2026-04-30 04:36 606K
20260430T00Z_MSC_GDPS_GeopotentialHeight_IsbL-0150_LatLon0.15_PT150H.grib2 2026-04-30 04:36 627K
20260430T00Z_MSC_GDPS_GeopotentialHeight_IsbL-0175_LatLon0.15_PT150H.grib2 2026-04-30 04:36 631K
20260430T00Z_MSC_GDPS_GeopotentialHeight_IsbL-0200_LatLon0.15_PT150H.grib2 2026-04-30 04:36 635K
20260430T00Z_MSC_GDPS_GeopotentialHeight_IsbL-0225_LatLon0.15_PT150H.grib2 2026-04-30 04:36 638K
20260430T00Z_MSC_GDPS_GeopotentialHeight_IsbL-0250_LatLon0.15_PT150H.grib2 2026-04-30 04:36 639K
20260430T00Z_MSC_GDPS_GeopotentialHeight_IsbL-0275_LatLon0.15_PT150H.grib2 2026-04-30 04:36 637K
20260430T00Z_MSC_GDPS_GeopotentialHeight_IsbL-0300_LatLon0.15_PT150H.grib2 2026-04-30 04:36 630K
20260430T00Z_MSC_GDPS_GeopotentialHeight_IsbL-0350_LatLon0.15_PT150H.grib2 2026-04-30 04:36 627K
20260430T00Z_MSC_GDPS_GeopotentialHeight_IsbL-0400_LatLon0.15_PT150H.grib2 2026-04-30 04:36 617K
20260430T00Z_MSC_GDPS_GeopotentialHeight_IsbL-0450_LatLon0.15_PT150H.grib2 2026-04-30 04:36 608K
20260430T00Z_MSC_GDPS_GeopotentialHeight_IsbL-0500_LatLon0.15_PT150H.grib2 2026-04-30 04:36 530K
20260430T00Z_MSC_GDPS_GeopotentialHeight_IsbL-0550_LatLon0.15_PT150H.grib2 2026-04-30 04:36 523K
20260430T00Z_MSC_GDPS_GeopotentialHeight_IsbL-0600_LatLon0.15_PT150H.grib2 2026-04-30 04:36 686K
20260430T00Z_MSC_GDPS_GeopotentialHeight_IsbL-0650_LatLon0.15_PT150H.grib2 2026-04-30 04:36 686K
20260430T00Z_MSC_GDPS_GeopotentialHeight_IsbL-0700_LatLon0.15_PT150H.grib2 2026-04-30 04:36 684K
20260430T00Z_MSC_GDPS_GeopotentialHeight_IsbL-0750_LatLon0.15_PT150H.grib2 2026-04-30 04:36 694K
20260430T00Z_MSC_GDPS_GeopotentialHeight_IsbL-0800_LatLon0.15_PT150H.grib2 2026-04-30 04:36 704K
20260430T00Z_MSC_GDPS_GeopotentialHeight_IsbL-0850_LatLon0.15_PT150H.grib2 2026-04-30 04:36 718K
20260430T00Z_MSC_GDPS_GeopotentialHeight_IsbL-0875_LatLon0.15_PT150H.grib2 2026-04-30 04:36 722K
20260430T00Z_MSC_GDPS_GeopotentialHeight_IsbL-0900_LatLon0.15_PT150H.grib2 2026-04-30 04:36 727K
20260430T00Z_MSC_GDPS_GeopotentialHeight_IsbL-0925_LatLon0.15_PT150H.grib2 2026-04-30 04:36 737K
20260430T00Z_MSC_GDPS_GeopotentialHeight_IsbL-0950_LatLon0.15_PT150H.grib2 2026-04-30 04:36 745K
20260430T00Z_MSC_GDPS_GeopotentialHeight_IsbL-0970_LatLon0.15_PT150H.grib2 2026-04-30 04:36 755K
20260430T00Z_MSC_GDPS_GeopotentialHeight_IsbL-0985_LatLon0.15_PT150H.grib2 2026-04-30 04:36 769K
20260430T00Z_MSC_GDPS_GeopotentialHeight_IsbL-1000_LatLon0.15_PT150H.grib2 2026-04-30 04:36 788K
20260430T00Z_MSC_GDPS_GeopotentialHeight_IsbL-1015_LatLon0.15_PT150H.grib2 2026-04-30 04:36 811K
20260430T00Z_MSC_GDPS_Humidex_Sfc_LatLon0.15_PT150H.grib2 2026-04-30 04:36 5.3M
20260430T00Z_MSC_GDPS_IcePellets-Accum12h_Sfc_LatLon0.15_PT150H.grib2 2026-04-30 04:36 36K
20260430T00Z_MSC_GDPS_IcePellets-Accum24h_Sfc_LatLon0.15_PT150H.grib2 2026-04-30 04:36 48K
20260430T00Z_MSC_GDPS_IcePellets-Accum3h_Sfc_LatLon0.15_PT150H.grib2 2026-04-30 04:36 18K
20260430T00Z_MSC_GDPS_IcePellets-Accum6h_Sfc_LatLon0.15_PT150H.grib2 2026-04-30 04:36 25K
20260430T00Z_MSC_GDPS_IcePellets-Accum_Sfc_LatLon0.15_PT150H.grib2 2026-04-30 04:36 111K
20260430T00Z_MSC_GDPS_KIndex_Sfc_LatLon0.15_PT150H.grib2 2026-04-30 04:36 6.5M
20260430T00Z_MSC_GDPS_LatentHeatNetFlux_Sfc_LatLon0.15_PT150H.grib2 2026-04-30 04:36 551K
20260430T00Z_MSC_GDPS_LiftedIndex-MU-VT_IsbL-0500_LatLon0.15_PT150H.grib2 2026-04-30 04:36 5.4M
20260430T00Z_MSC_GDPS_NetLongwaveRadiationFlux-Accum_Sfc_LatLon0.15_PT150H.grib2 2026-04-30 04:36 1.1M
20260430T00Z_MSC_GDPS_NetShortwaveRadiationFlux-Accum_Sfc_LatLon0.15_PT150H.grib2 2026-04-30 04:36 1.0M
20260430T00Z_MSC_GDPS_O3MixingRatio_Sfc_LatLon0.15_PT150H.grib2 2026-04-30 04:51 1.9M
20260430T00Z_MSC_GDPS_O3_EAtm_LatLon0.15_PT150H.grib2 2026-04-30 04:51 2.4M
20260430T00Z_MSC_GDPS_PlanetaryBoundaryLayerHeight_Sfc_LatLon0.15_PT150H.grib2 2026-04-30 04:36 2.5M
20260430T00Z_MSC_GDPS_Precip-Accum12h_Sfc_LatLon0.15_PT150H.grib2 2026-04-30 04:36 4.0M
20260430T00Z_MSC_GDPS_Precip-Accum24h_Sfc_LatLon0.15_PT150H.grib2 2026-04-30 04:36 4.5M
20260430T00Z_MSC_GDPS_Precip-Accum3h_Sfc_LatLon0.15_PT150H.grib2 2026-04-30 04:36 3.4M
20260430T00Z_MSC_GDPS_Precip-Accum6h_Sfc_LatLon0.15_PT150H.grib2 2026-04-30 04:36 3.9M
20260430T00Z_MSC_GDPS_Precip-Accum_Sfc_LatLon0.15_PT150H.grib2 2026-04-30 04:36 5.3M
20260430T00Z_MSC_GDPS_PrecipRate_Sfc_LatLon0.15_PT150H.grib2 2026-04-30 04:36 3.1M
20260430T00Z_MSC_GDPS_PrecipType-Instant_Sfc_LatLon0.15_PT150H.grib2 2026-04-30 04:36 1.6M
20260430T00Z_MSC_GDPS_Pressure_MSL_LatLon0.15_PT150H.grib2 2026-04-30 04:36 820K
20260430T00Z_MSC_GDPS_Pressure_PVU-1.5_LatLon0.15_PT150H.grib2 2026-04-30 04:36 5.8M
20260430T00Z_MSC_GDPS_Pressure_PVU-1_LatLon0.15_PT150H.grib2 2026-04-30 04:36 6.0M
20260430T00Z_MSC_GDPS_Pressure_PVU-2_LatLon0.15_PT150H.grib2 2026-04-30 04:36 5.6M
20260430T00Z_MSC_GDPS_Pressure_Sfc_LatLon0.15_PT150H.grib2 2026-04-30 04:36 1.1M
20260430T00Z_MSC_GDPS_RadiativeTemp_Sfc_LatLon0.15_PT150H.grib2 2026-04-30 04:36 497K
20260430T00Z_MSC_GDPS_Rain-Accum12h_Sfc_LatLon0.15_PT150H.grib2 2026-04-30 04:36 2.7M
20260430T00Z_MSC_GDPS_Rain-Accum24h_Sfc_LatLon0.15_PT150H.grib2 2026-04-30 04:36 3.2M
20260430T00Z_MSC_GDPS_Rain-Accum3h_Sfc_LatLon0.15_PT150H.grib2 2026-04-30 04:36 1.8M
20260430T00Z_MSC_GDPS_Rain-Accum6h_Sfc_LatLon0.15_PT150H.grib2 2026-04-30 04:36 2.4M
20260430T00Z_MSC_GDPS_Rain-Accum_Sfc_LatLon0.15_PT150H.grib2 2026-04-30 04:36 4.1M
20260430T00Z_MSC_GDPS_RelativeHumidity_AGL-2m_LatLon0.15_PT150H.grib2 2026-04-30 04:36 1.0M
20260430T00Z_MSC_GDPS_RelativeHumidity_IsbL-0010_LatLon0.15_PT150H.grib2 2026-04-30 04:36 194K
20260430T00Z_MSC_GDPS_RelativeHumidity_IsbL-0020_LatLon0.15_PT150H.grib2 2026-04-30 04:36 160K
20260430T00Z_MSC_GDPS_RelativeHumidity_IsbL-0030_LatLon0.15_PT150H.grib2 2026-04-30 04:36 262K
20260430T00Z_MSC_GDPS_RelativeHumidity_IsbL-0050_LatLon0.15_PT150H.grib2 2026-04-30 04:36 334K
20260430T00Z_MSC_GDPS_RelativeHumidity_IsbL-0100_LatLon0.15_PT150H.grib2 2026-04-30 04:36 496K
20260430T00Z_MSC_GDPS_RelativeHumidity_IsbL-0150_LatLon0.15_PT150H.grib2 2026-04-30 04:36 661K
20260430T00Z_MSC_GDPS_RelativeHumidity_IsbL-0175_LatLon0.15_PT150H.grib2 2026-04-30 04:36 795K
20260430T00Z_MSC_GDPS_RelativeHumidity_IsbL-0200_LatLon0.15_PT150H.grib2 2026-04-30 04:36 705K
20260430T00Z_MSC_GDPS_RelativeHumidity_IsbL-0225_LatLon0.15_PT150H.grib2 2026-04-30 04:36 781K
20260430T00Z_MSC_GDPS_RelativeHumidity_IsbL-0250_LatLon0.15_PT150H.grib2 2026-04-30 04:36 850K
20260430T00Z_MSC_GDPS_RelativeHumidity_IsbL-0275_LatLon0.15_PT150H.grib2 2026-04-30 04:36 873K
20260430T00Z_MSC_GDPS_RelativeHumidity_IsbL-0300_LatLon0.15_PT150H.grib2 2026-04-30 04:36 918K
20260430T00Z_MSC_GDPS_RelativeHumidity_IsbL-0350_LatLon0.15_PT150H.grib2 2026-04-30 04:36 941K
20260430T00Z_MSC_GDPS_RelativeHumidity_IsbL-0400_LatLon0.15_PT150H.grib2 2026-04-30 04:36 965K
20260430T00Z_MSC_GDPS_RelativeHumidity_IsbL-0450_LatLon0.15_PT150H.grib2 2026-04-30 04:36 1.0M
20260430T00Z_MSC_GDPS_RelativeHumidity_IsbL-0500_LatLon0.15_PT150H.grib2 2026-04-30 04:36 1.0M
20260430T00Z_MSC_GDPS_RelativeHumidity_IsbL-0550_LatLon0.15_PT150H.grib2 2026-04-30 04:36 1.0M
20260430T00Z_MSC_GDPS_RelativeHumidity_IsbL-0600_LatLon0.15_PT150H.grib2 2026-04-30 04:36 1.0M
20260430T00Z_MSC_GDPS_RelativeHumidity_IsbL-0650_LatLon0.15_PT150H.grib2 2026-04-30 04:36 1.0M
20260430T00Z_MSC_GDPS_RelativeHumidity_IsbL-0700_LatLon0.15_PT150H.grib2 2026-04-30 04:36 1.1M
20260430T00Z_MSC_GDPS_RelativeHumidity_IsbL-0750_LatLon0.15_PT150H.grib2 2026-04-30 04:36 1.1M
20260430T00Z_MSC_GDPS_RelativeHumidity_IsbL-0800_LatLon0.15_PT150H.grib2 2026-04-30 04:36 1.2M
20260430T00Z_MSC_GDPS_RelativeHumidity_IsbL-0850_LatLon0.15_PT150H.grib2 2026-04-30 04:36 1.2M
20260430T00Z_MSC_GDPS_RelativeHumidity_IsbL-0875_LatLon0.15_PT150H.grib2 2026-04-30 04:36 1.2M
20260430T00Z_MSC_GDPS_RelativeHumidity_IsbL-0900_LatLon0.15_PT150H.grib2 2026-04-30 04:36 1.2M
20260430T00Z_MSC_GDPS_RelativeHumidity_IsbL-0925_LatLon0.15_PT150H.grib2 2026-04-30 04:36 1.2M
20260430T00Z_MSC_GDPS_RelativeHumidity_IsbL-0950_LatLon0.15_PT150H.grib2 2026-04-30 04:36 1.2M
20260430T00Z_MSC_GDPS_RelativeHumidity_IsbL-0970_LatLon0.15_PT150H.grib2 2026-04-30 04:36 1.2M
20260430T00Z_MSC_GDPS_RelativeHumidity_IsbL-0985_LatLon0.15_PT150H.grib2 2026-04-30 04:36 1.1M
20260430T00Z_MSC_GDPS_RelativeHumidity_IsbL-1000_LatLon0.15_PT150H.grib2 2026-04-30 04:36 1.1M
20260430T00Z_MSC_GDPS_RelativeHumidity_IsbL-1015_LatLon0.15_PT150H.grib2 2026-04-30 04:36 1.0M
20260430T00Z_MSC_GDPS_RelativeVorticity_IsbL-0200_LatLon0.15_PT150H.grib2 2026-04-30 04:36 1.5M
20260430T00Z_MSC_GDPS_RelativeVorticity_IsbL-0250_LatLon0.15_PT150H.grib2 2026-04-30 04:36 1.3M
20260430T00Z_MSC_GDPS_RelativeVorticity_IsbL-0500_LatLon0.15_PT150H.grib2 2026-04-30 04:36 1.4M
20260430T00Z_MSC_GDPS_RelativeVorticity_IsbL-0700_LatLon0.15_PT150H.grib2 2026-04-30 04:36 1.3M
20260430T00Z_MSC_GDPS_RelativeVorticity_IsbL-0850_LatLon0.15_PT150H.grib2 2026-04-30 04:36 1.6M
20260430T00Z_MSC_GDPS_Runoff-Accum_Sfc_LatLon0.15_PT150H.grib2 2026-04-30 04:36 113K
20260430T00Z_MSC_GDPS_SensibleHeatNetFlux_Sfc_LatLon0.15_PT150H.grib2 2026-04-30 04:36 496K
20260430T00Z_MSC_GDPS_ShowalterIndex_IsbL-0500_LatLon0.15_PT150H.grib2 2026-04-30 04:36 6.2M
20260430T00Z_MSC_GDPS_Snow-Accum12h_Sfc_LatLon0.15_PT150H.grib2 2026-04-30 04:36 1.5M
20260430T00Z_MSC_GDPS_Snow-Accum24h_Sfc_LatLon0.15_PT150H.grib2 2026-04-30 04:36 1.7M
20260430T00Z_MSC_GDPS_Snow-Accum3h_Sfc_LatLon0.15_PT150H.grib2 2026-04-30 04:36 1.2M
20260430T00Z_MSC_GDPS_Snow-Accum6h_Sfc_LatLon0.15_PT150H.grib2 2026-04-30 04:36 1.5M
20260430T00Z_MSC_GDPS_Snow-Accum_Sfc_LatLon0.15_PT150H.grib2 2026-04-30 04:36 2.2M
20260430T00Z_MSC_GDPS_SnowDensity_Sfc_LatLon0.15_PT150H.grib2 2026-04-30 04:36 262K
20260430T00Z_MSC_GDPS_SnowDepth_Sfc_LatLon0.15_PT150H.grib2 2026-04-30 04:36 1.7M
20260430T00Z_MSC_GDPS_SoilTemp_DBS-0to10cm_LatLon0.15_PT150H.grib2 2026-04-30 04:36 512K
20260430T00Z_MSC_GDPS_SoilTemp_Sfc_LatLon0.15_PT150H.grib2 2026-04-30 04:36 582K
20260430T00Z_MSC_GDPS_SoilVolumetricIceContent_Sfc_LatLon0.15_PT150H.grib2 2026-04-30 04:36 190K
20260430T00Z_MSC_GDPS_SoilVolumetricWaterContent_DBS-0to10cm_LatLon0.15_PT150H.grib2 2026-04-30 04:36 591K
20260430T00Z_MSC_GDPS_SoilVolumetricWaterContent_DBS-0to1cm_LatLon0.15_PT150H.grib2 2026-04-30 04:36 651K
20260430T00Z_MSC_GDPS_SpecificHumidity_AGL-120m_LatLon0.15_PT150H.grib2 2026-04-30 04:36 1.1M
20260430T00Z_MSC_GDPS_SpecificHumidity_AGL-2m_LatLon0.15_PT150H.grib2 2026-04-30 04:36 1.2M
20260430T00Z_MSC_GDPS_SpecificHumidity_AGL-40m_LatLon0.15_PT150H.grib2 2026-04-30 04:36 1.1M
20260430T00Z_MSC_GDPS_SpecificHumidity_AGL-80m_LatLon0.15_PT150H.grib2 2026-04-30 04:36 1.1M
20260430T00Z_MSC_GDPS_SpecificHumidity_IsbL-0001_LatLon0.15_PT150H.grib2 2026-04-30 04:36 1.2M
20260430T00Z_MSC_GDPS_SpecificHumidity_IsbL-0005_LatLon0.15_PT150H.grib2 2026-04-30 04:36 1.1M
20260430T00Z_MSC_GDPS_SpecificHumidity_IsbL-0010_LatLon0.15_PT150H.grib2 2026-04-30 04:36 1.2M
20260430T00Z_MSC_GDPS_SpecificHumidity_IsbL-0020_LatLon0.15_PT150H.grib2 2026-04-30 04:36 1.2M
20260430T00Z_MSC_GDPS_SpecificHumidity_IsbL-0030_LatLon0.15_PT150H.grib2 2026-04-30 04:36 1.5M
20260430T00Z_MSC_GDPS_SpecificHumidity_IsbL-0050_LatLon0.15_PT150H.grib2 2026-04-30 04:36 1.6M
20260430T00Z_MSC_GDPS_SpecificHumidity_IsbL-0100_LatLon0.15_PT150H.grib2 2026-04-30 04:36 1.3M
20260430T00Z_MSC_GDPS_SpecificHumidity_IsbL-0150_LatLon0.15_PT150H.grib2 2026-04-30 04:36 1.3M
20260430T00Z_MSC_GDPS_SpecificHumidity_IsbL-0175_LatLon0.15_PT150H.grib2 2026-04-30 04:36 1.2M
20260430T00Z_MSC_GDPS_SpecificHumidity_IsbL-0200_LatLon0.15_PT150H.grib2 2026-04-30 04:36 1.3M
20260430T00Z_MSC_GDPS_SpecificHumidity_IsbL-0225_LatLon0.15_PT150H.grib2 2026-04-30 04:36 1.3M
20260430T00Z_MSC_GDPS_SpecificHumidity_IsbL-0250_LatLon0.15_PT150H.grib2 2026-04-30 04:36 1.4M
20260430T00Z_MSC_GDPS_SpecificHumidity_IsbL-0275_LatLon0.15_PT150H.grib2 2026-04-30 04:36 1.3M
20260430T00Z_MSC_GDPS_SpecificHumidity_IsbL-0300_LatLon0.15_PT150H.grib2 2026-04-30 04:36 1.2M
20260430T00Z_MSC_GDPS_SpecificHumidity_IsbL-0350_LatLon0.15_PT150H.grib2 2026-04-30 04:36 1.2M
20260430T00Z_MSC_GDPS_SpecificHumidity_IsbL-0400_LatLon0.15_PT150H.grib2 2026-04-30 04:36 1.5M
20260430T00Z_MSC_GDPS_SpecificHumidity_IsbL-0450_LatLon0.15_PT150H.grib2 2026-04-30 04:36 1.6M
20260430T00Z_MSC_GDPS_SpecificHumidity_IsbL-0500_LatLon0.15_PT150H.grib2 2026-04-30 04:36 1.4M
20260430T00Z_MSC_GDPS_SpecificHumidity_IsbL-0550_LatLon0.15_PT150H.grib2 2026-04-30 04:36 1.6M
20260430T00Z_MSC_GDPS_SpecificHumidity_IsbL-0600_LatLon0.15_PT150H.grib2 2026-04-30 04:36 1.7M
20260430T00Z_MSC_GDPS_SpecificHumidity_IsbL-0650_LatLon0.15_PT150H.grib2 2026-04-30 04:36 1.5M
20260430T00Z_MSC_GDPS_SpecificHumidity_IsbL-0700_LatLon0.15_PT150H.grib2 2026-04-30 04:36 1.6M
20260430T00Z_MSC_GDPS_SpecificHumidity_IsbL-0750_LatLon0.15_PT150H.grib2 2026-04-30 04:36 1.7M
20260430T00Z_MSC_GDPS_SpecificHumidity_IsbL-0800_LatLon0.15_PT150H.grib2 2026-04-30 04:36 1.8M
20260430T00Z_MSC_GDPS_SpecificHumidity_IsbL-0850_LatLon0.15_PT150H.grib2 2026-04-30 04:36 1.9M
20260430T00Z_MSC_GDPS_SpecificHumidity_IsbL-0875_LatLon0.15_PT150H.grib2 2026-04-30 04:36 1.9M
20260430T00Z_MSC_GDPS_SpecificHumidity_IsbL-0900_LatLon0.15_PT150H.grib2 2026-04-30 04:36 1.9M
20260430T00Z_MSC_GDPS_SpecificHumidity_IsbL-0925_LatLon0.15_PT150H.grib2 2026-04-30 04:36 1.6M
20260430T00Z_MSC_GDPS_SpecificHumidity_IsbL-0950_LatLon0.15_PT150H.grib2 2026-04-30 04:36 1.6M
20260430T00Z_MSC_GDPS_SpecificHumidity_IsbL-0970_LatLon0.15_PT150H.grib2 2026-04-30 04:36 1.5M
20260430T00Z_MSC_GDPS_SpecificHumidity_IsbL-0985_LatLon0.15_PT150H.grib2 2026-04-30 04:36 1.5M
20260430T00Z_MSC_GDPS_SpecificHumidity_IsbL-1000_LatLon0.15_PT150H.grib2 2026-04-30 04:36 1.5M
20260430T00Z_MSC_GDPS_SpecificHumidity_IsbL-1015_LatLon0.15_PT150H.grib2 2026-04-30 04:36 1.5M
20260430T00Z_MSC_GDPS_SpecificHumidity_Sfc_LatLon0.15_PT150H.grib2 2026-04-30 04:36 677K
20260430T00Z_MSC_GDPS_Thickness_IsbL-0850to0700_LatLon0.15_PT150H.grib2 2026-04-30 04:36 471K
20260430T00Z_MSC_GDPS_Thickness_IsbL-1000to0500_LatLon0.15_PT150H.grib2 2026-04-30 04:36 375K
20260430T00Z_MSC_GDPS_Thickness_IsbL-1000to0850_LatLon0.15_PT150H.grib2 2026-04-30 04:36 493K
20260430T00Z_MSC_GDPS_TotalCloudCover_Sfc_LatLon0.15_PT150H.grib2 2026-04-30 04:36 817K
20260430T00Z_MSC_GDPS_TotalTotalsIndex_Sfc_LatLon0.15_PT150H.grib2 2026-04-30 04:36 6.2M
20260430T00Z_MSC_GDPS_UVIndex-ClearSky_Sfc_LatLon0.15_PT150H.grib2 2026-04-30 04:51 1.1M
20260430T00Z_MSC_GDPS_UVIndex_Sfc_LatLon0.15_PT150H.grib2 2026-04-30 04:51 1.5M
20260430T00Z_MSC_GDPS_UpwardLongwaveRadiationFlux_NTAtm_LatLon0.15_PT150H.grib2 2026-04-30 04:36 824K
20260430T00Z_MSC_GDPS_VerticalVelocity_IsbL-0200_LatLon0.15_PT150H.grib2 2026-04-30 04:36 1.2M
20260430T00Z_MSC_GDPS_VerticalVelocity_IsbL-0250_LatLon0.15_PT150H.grib2 2026-04-30 04:36 1.0M
20260430T00Z_MSC_GDPS_VerticalVelocity_IsbL-0500_LatLon0.15_PT150H.grib2 2026-04-30 04:36 1.3M
20260430T00Z_MSC_GDPS_VerticalVelocity_IsbL-0600_LatLon0.15_PT150H.grib2 2026-04-30 04:36 1.1M
20260430T00Z_MSC_GDPS_VerticalVelocity_IsbL-0700_LatLon0.15_PT150H.grib2 2026-04-30 04:36 1.2M
20260430T00Z_MSC_GDPS_VerticalVelocity_IsbL-0850_LatLon0.15_PT150H.grib2 2026-04-30 04:36 1.3M
20260430T00Z_MSC_GDPS_WindChill_Sfc_LatLon0.15_PT150H.grib2 2026-04-30 04:36 5.3M
20260430T00Z_MSC_GDPS_WindDir_AGL-10m_LatLon0.15_PT150H.grib2 2026-04-30 04:36 1.3M
20260430T00Z_MSC_GDPS_WindDir_AGL-120m_LatLon0.15_PT150H.grib2 2026-04-30 04:36 1.3M
20260430T00Z_MSC_GDPS_WindDir_AGL-40m_LatLon0.15_PT150H.grib2 2026-04-30 04:36 1.4M
20260430T00Z_MSC_GDPS_WindDir_AGL-80m_LatLon0.15_PT150H.grib2 2026-04-30 04:36 1.3M
20260430T00Z_MSC_GDPS_WindDir_IsbL-0001_LatLon0.15_PT150H.grib2 2026-04-30 04:36 666K
20260430T00Z_MSC_GDPS_WindDir_IsbL-0005_LatLon0.15_PT150H.grib2 2026-04-30 04:36 818K
20260430T00Z_MSC_GDPS_WindDir_IsbL-0010_LatLon0.15_PT150H.grib2 2026-04-30 04:36 825K
20260430T00Z_MSC_GDPS_WindDir_IsbL-0020_LatLon0.15_PT150H.grib2 2026-04-30 04:36 932K
20260430T00Z_MSC_GDPS_WindDir_IsbL-0030_LatLon0.15_PT150H.grib2 2026-04-30 04:36 932K
20260430T00Z_MSC_GDPS_WindDir_IsbL-0050_LatLon0.15_PT150H.grib2 2026-04-30 04:36 940K
20260430T00Z_MSC_GDPS_WindDir_IsbL-0100_LatLon0.15_PT150H.grib2 2026-04-30 04:36 1.0M
20260430T00Z_MSC_GDPS_WindDir_IsbL-0150_LatLon0.15_PT150H.grib2 2026-04-30 04:36 1.0M
20260430T00Z_MSC_GDPS_WindDir_IsbL-0175_LatLon0.15_PT150H.grib2 2026-04-30 04:36 1.0M
20260430T00Z_MSC_GDPS_WindDir_IsbL-0200_LatLon0.15_PT150H.grib2 2026-04-30 04:36 1.1M
20260430T00Z_MSC_GDPS_WindDir_IsbL-0225_LatLon0.15_PT150H.grib2 2026-04-30 04:36 1.1M
20260430T00Z_MSC_GDPS_WindDir_IsbL-0250_LatLon0.15_PT150H.grib2 2026-04-30 04:36 1.1M
20260430T00Z_MSC_GDPS_WindDir_IsbL-0275_LatLon0.15_PT150H.grib2 2026-04-30 04:36 1.2M
20260430T00Z_MSC_GDPS_WindDir_IsbL-0300_LatLon0.15_PT150H.grib2 2026-04-30 04:36 1.2M
20260430T00Z_MSC_GDPS_WindDir_IsbL-0350_LatLon0.15_PT150H.grib2 2026-04-30 04:36 1.2M
20260430T00Z_MSC_GDPS_WindDir_IsbL-0400_LatLon0.15_PT150H.grib2 2026-04-30 04:36 1.3M
20260430T00Z_MSC_GDPS_WindDir_IsbL-0450_LatLon0.15_PT150H.grib2 2026-04-30 04:36 1.3M
20260430T00Z_MSC_GDPS_WindDir_IsbL-0500_LatLon0.15_PT150H.grib2 2026-04-30 04:36 1.3M
20260430T00Z_MSC_GDPS_WindDir_IsbL-0550_LatLon0.15_PT150H.grib2 2026-04-30 04:36 1.4M
20260430T00Z_MSC_GDPS_WindDir_IsbL-0600_LatLon0.15_PT150H.grib2 2026-04-30 04:36 1.4M
20260430T00Z_MSC_GDPS_WindDir_IsbL-0650_LatLon0.15_PT150H.grib2 2026-04-30 04:36 1.5M
20260430T00Z_MSC_GDPS_WindDir_IsbL-0700_LatLon0.15_PT150H.grib2 2026-04-30 04:36 1.6M
20260430T00Z_MSC_GDPS_WindDir_IsbL-0750_LatLon0.15_PT150H.grib2 2026-04-30 04:36 1.6M
20260430T00Z_MSC_GDPS_WindDir_IsbL-0800_LatLon0.15_PT150H.grib2 2026-04-30 04:36 1.8M
20260430T00Z_MSC_GDPS_WindDir_IsbL-0850_LatLon0.15_PT150H.grib2 2026-04-30 04:36 1.9M
20260430T00Z_MSC_GDPS_WindDir_IsbL-0875_LatLon0.15_PT150H.grib2 2026-04-30 04:36 1.9M
20260430T00Z_MSC_GDPS_WindDir_IsbL-0900_LatLon0.15_PT150H.grib2 2026-04-30 04:36 1.9M
20260430T00Z_MSC_GDPS_WindDir_IsbL-0925_LatLon0.15_PT150H.grib2 2026-04-30 04:36 1.9M
20260430T00Z_MSC_GDPS_WindDir_IsbL-0950_LatLon0.15_PT150H.grib2 2026-04-30 04:36 1.9M
20260430T00Z_MSC_GDPS_WindDir_IsbL-0970_LatLon0.15_PT150H.grib2 2026-04-30 04:36 1.9M
20260430T00Z_MSC_GDPS_WindDir_IsbL-0985_LatLon0.15_PT150H.grib2 2026-04-30 04:36 2.0M
20260430T00Z_MSC_GDPS_WindDir_IsbL-1000_LatLon0.15_PT150H.grib2 2026-04-30 04:36 2.0M
20260430T00Z_MSC_GDPS_WindDir_IsbL-1015_LatLon0.15_PT150H.grib2 2026-04-30 04:36 2.0M
20260430T00Z_MSC_GDPS_WindGust-Max_AGL-10m_LatLon0.15_PT150H.grib2 2026-04-30 04:36 2.2M
20260430T00Z_MSC_GDPS_WindGust-Min_AGL-10m_LatLon0.15_PT150H.grib2 2026-04-30 04:36 2.2M
20260430T00Z_MSC_GDPS_WindGust_AGL-10m_LatLon0.15_PT150H.grib2 2026-04-30 04:36 2.1M
20260430T00Z_MSC_GDPS_WindSpeed_AGL-10m_LatLon0.15_PT150H.grib2 2026-04-30 04:36 1.1M
20260430T00Z_MSC_GDPS_WindSpeed_AGL-120m_LatLon0.15_PT150H.grib2 2026-04-30 04:36 1.2M
20260430T00Z_MSC_GDPS_WindSpeed_AGL-40m_LatLon0.15_PT150H.grib2 2026-04-30 04:36 1.2M
20260430T00Z_MSC_GDPS_WindSpeed_AGL-80m_LatLon0.15_PT150H.grib2 2026-04-30 04:36 1.2M
20260430T00Z_MSC_GDPS_WindSpeed_IsbL-0001_LatLon0.15_PT150H.grib2 2026-04-30 04:36 647K
20260430T00Z_MSC_GDPS_WindSpeed_IsbL-0005_LatLon0.15_PT150H.grib2 2026-04-30 04:36 691K
20260430T00Z_MSC_GDPS_WindSpeed_IsbL-0010_LatLon0.15_PT150H.grib2 2026-04-30 04:36 622K
20260430T00Z_MSC_GDPS_WindSpeed_IsbL-0020_LatLon0.15_PT150H.grib2 2026-04-30 04:36 658K
20260430T00Z_MSC_GDPS_WindSpeed_IsbL-0030_LatLon0.15_PT150H.grib2 2026-04-30 04:36 854K
20260430T00Z_MSC_GDPS_WindSpeed_IsbL-0050_LatLon0.15_PT150H.grib2 2026-04-30 04:36 892K
20260430T00Z_MSC_GDPS_WindSpeed_IsbL-0100_LatLon0.15_PT150H.grib2 2026-04-30 04:36 1.1M
20260430T00Z_MSC_GDPS_WindSpeed_IsbL-0150_LatLon0.15_PT150H.grib2 2026-04-30 04:36 941K
20260430T00Z_MSC_GDPS_WindSpeed_IsbL-0175_LatLon0.15_PT150H.grib2 2026-04-30 04:36 1.0M
20260430T00Z_MSC_GDPS_WindSpeed_IsbL-0200_LatLon0.15_PT150H.grib2 2026-04-30 04:36 1.1M
20260430T00Z_MSC_GDPS_WindSpeed_IsbL-0225_LatLon0.15_PT150H.grib2 2026-04-30 04:36 1.1M
20260430T00Z_MSC_GDPS_WindSpeed_IsbL-0250_LatLon0.15_PT150H.grib2 2026-04-30 04:36 1.1M
20260430T00Z_MSC_GDPS_WindSpeed_IsbL-0275_LatLon0.15_PT150H.grib2 2026-04-30 04:36 1.1M
20260430T00Z_MSC_GDPS_WindSpeed_IsbL-0300_LatLon0.15_PT150H.grib2 2026-04-30 04:36 1.1M
20260430T00Z_MSC_GDPS_WindSpeed_IsbL-0350_LatLon0.15_PT150H.grib2 2026-04-30 04:36 1.1M
20260430T00Z_MSC_GDPS_WindSpeed_IsbL-0400_LatLon0.15_PT150H.grib2 2026-04-30 04:36 1.1M
20260430T00Z_MSC_GDPS_WindSpeed_IsbL-0450_LatLon0.15_PT150H.grib2 2026-04-30 04:36 1.1M
20260430T00Z_MSC_GDPS_WindSpeed_IsbL-0500_LatLon0.15_PT150H.grib2 2026-04-30 04:36 1.1M
20260430T00Z_MSC_GDPS_WindSpeed_IsbL-0550_LatLon0.15_PT150H.grib2 2026-04-30 04:36 1.1M
20260430T00Z_MSC_GDPS_WindSpeed_IsbL-0600_LatLon0.15_PT150H.grib2 2026-04-30 04:36 1.1M
20260430T00Z_MSC_GDPS_WindSpeed_IsbL-0650_LatLon0.15_PT150H.grib2 2026-04-30 04:36 1.4M
20260430T00Z_MSC_GDPS_WindSpeed_IsbL-0700_LatLon0.15_PT150H.grib2 2026-04-30 04:36 1.5M
20260430T00Z_MSC_GDPS_WindSpeed_IsbL-0750_LatLon0.15_PT150H.grib2 2026-04-30 04:36 1.5M
20260430T00Z_MSC_GDPS_WindSpeed_IsbL-0800_LatLon0.15_PT150H.grib2 2026-04-30 04:36 1.6M
20260430T00Z_MSC_GDPS_WindSpeed_IsbL-0850_LatLon0.15_PT150H.grib2 2026-04-30 04:36 1.7M
20260430T00Z_MSC_GDPS_WindSpeed_IsbL-0875_LatLon0.15_PT150H.grib2 2026-04-30 04:36 1.8M
20260430T00Z_MSC_GDPS_WindSpeed_IsbL-0900_LatLon0.15_PT150H.grib2 2026-04-30 04:36 1.8M
20260430T00Z_MSC_GDPS_WindSpeed_IsbL-0925_LatLon0.15_PT150H.grib2 2026-04-30 04:36 1.8M
20260430T00Z_MSC_GDPS_WindSpeed_IsbL-0950_LatLon0.15_PT150H.grib2 2026-04-30 04:36 1.8M
20260430T00Z_MSC_GDPS_WindSpeed_IsbL-0970_LatLon0.15_PT150H.grib2 2026-04-30 04:36 1.9M
20260430T00Z_MSC_GDPS_WindSpeed_IsbL-0985_LatLon0.15_PT150H.grib2 2026-04-30 04:36 1.9M
20260430T00Z_MSC_GDPS_WindSpeed_IsbL-1000_LatLon0.15_PT150H.grib2 2026-04-30 04:36 1.9M
20260430T00Z_MSC_GDPS_WindSpeed_IsbL-1015_LatLon0.15_PT150H.grib2 2026-04-30 04:36 1.8M
20260430T00Z_MSC_GDPS_WindU_AGL-10m_LatLon0.15_PT150H.grib2 2026-04-30 04:36 1.3M
20260430T00Z_MSC_GDPS_WindU_AGL-120m_LatLon0.15_PT150H.grib2 2026-04-30 04:36 1.0M
20260430T00Z_MSC_GDPS_WindU_AGL-40m_LatLon0.15_PT150H.grib2 2026-04-30 04:36 959K
20260430T00Z_MSC_GDPS_WindU_AGL-80m_LatLon0.15_PT150H.grib2 2026-04-30 04:36 963K
20260430T00Z_MSC_GDPS_WindU_IsbL-0001_LatLon0.15_PT150H.grib2 2026-04-30 04:36 504K
20260430T00Z_MSC_GDPS_WindU_IsbL-0005_LatLon0.15_PT150H.grib2 2026-04-30 04:36 686K
20260430T00Z_MSC_GDPS_WindU_IsbL-0010_LatLon0.15_PT150H.grib2 2026-04-30 04:36 698K
20260430T00Z_MSC_GDPS_WindU_IsbL-0020_LatLon0.15_PT150H.grib2 2026-04-30 04:36 727K
20260430T00Z_MSC_GDPS_WindU_IsbL-0030_LatLon0.15_PT150H.grib2 2026-04-30 04:36 733K
20260430T00Z_MSC_GDPS_WindU_IsbL-0050_LatLon0.15_PT150H.grib2 2026-04-30 04:36 687K
20260430T00Z_MSC_GDPS_WindU_IsbL-0100_LatLon0.15_PT150H.grib2 2026-04-30 04:36 919K
20260430T00Z_MSC_GDPS_WindU_IsbL-0150_LatLon0.15_PT150H.grib2 2026-04-30 04:36 1.0M
20260430T00Z_MSC_GDPS_WindU_IsbL-0175_LatLon0.15_PT150H.grib2 2026-04-30 04:36 1.0M
20260430T00Z_MSC_GDPS_WindU_IsbL-0200_LatLon0.15_PT150H.grib2 2026-04-30 04:36 1.0M
20260430T00Z_MSC_GDPS_WindU_IsbL-0225_LatLon0.15_PT150H.grib2 2026-04-30 04:36 849K
20260430T00Z_MSC_GDPS_WindU_IsbL-0250_LatLon0.15_PT150H.grib2 2026-04-30 04:36 847K
20260430T00Z_MSC_GDPS_WindU_IsbL-0275_LatLon0.15_PT150H.grib2 2026-04-30 04:36 875K
20260430T00Z_MSC_GDPS_WindU_IsbL-0300_LatLon0.15_PT150H.grib2 2026-04-30 04:36 867K
20260430T00Z_MSC_GDPS_WindU_IsbL-0350_LatLon0.15_PT150H.grib2 2026-04-30 04:36 880K
20260430T00Z_MSC_GDPS_WindU_IsbL-0400_LatLon0.15_PT150H.grib2 2026-04-30 04:36 884K
20260430T00Z_MSC_GDPS_WindU_IsbL-0450_LatLon0.15_PT150H.grib2 2026-04-30 04:36 887K
20260430T00Z_MSC_GDPS_WindU_IsbL-0500_LatLon0.15_PT150H.grib2 2026-04-30 04:36 893K
20260430T00Z_MSC_GDPS_WindU_IsbL-0550_LatLon0.15_PT150H.grib2 2026-04-30 04:36 1.1M
20260430T00Z_MSC_GDPS_WindU_IsbL-0600_LatLon0.15_PT150H.grib2 2026-04-30 04:36 1.1M
20260430T00Z_MSC_GDPS_WindU_IsbL-0650_LatLon0.15_PT150H.grib2 2026-04-30 04:36 1.2M
20260430T00Z_MSC_GDPS_WindU_IsbL-0700_LatLon0.15_PT150H.grib2 2026-04-30 04:36 1.2M
20260430T00Z_MSC_GDPS_WindU_IsbL-0750_LatLon0.15_PT150H.grib2 2026-04-30 04:36 1.3M
20260430T00Z_MSC_GDPS_WindU_IsbL-0800_LatLon0.15_PT150H.grib2 2026-04-30 04:36 1.3M
20260430T00Z_MSC_GDPS_WindU_IsbL-0850_LatLon0.15_PT150H.grib2 2026-04-30 04:36 1.4M
20260430T00Z_MSC_GDPS_WindU_IsbL-0875_LatLon0.15_PT150H.grib2 2026-04-30 04:36 1.5M
20260430T00Z_MSC_GDPS_WindU_IsbL-0900_LatLon0.15_PT150H.grib2 2026-04-30 04:36 1.5M
20260430T00Z_MSC_GDPS_WindU_IsbL-0925_LatLon0.15_PT150H.grib2 2026-04-30 04:36 1.5M
20260430T00Z_MSC_GDPS_WindU_IsbL-0950_LatLon0.15_PT150H.grib2 2026-04-30 04:36 1.4M
20260430T00Z_MSC_GDPS_WindU_IsbL-0970_LatLon0.15_PT150H.grib2 2026-04-30 04:36 1.4M
20260430T00Z_MSC_GDPS_WindU_IsbL-0985_LatLon0.15_PT150H.grib2 2026-04-30 04:36 1.4M
20260430T00Z_MSC_GDPS_WindU_IsbL-1000_LatLon0.15_PT150H.grib2 2026-04-30 04:36 1.4M
20260430T00Z_MSC_GDPS_WindU_IsbL-1015_LatLon0.15_PT150H.grib2 2026-04-30 04:36 1.3M
20260430T00Z_MSC_GDPS_WindV_AGL-10m_LatLon0.15_PT150H.grib2 2026-04-30 04:36 1.3M
20260430T00Z_MSC_GDPS_WindV_AGL-120m_LatLon0.15_PT150H.grib2 2026-04-30 04:36 961K
20260430T00Z_MSC_GDPS_WindV_AGL-40m_LatLon0.15_PT150H.grib2 2026-04-30 04:36 956K
20260430T00Z_MSC_GDPS_WindV_AGL-80m_LatLon0.15_PT150H.grib2 2026-04-30 04:36 961K
20260430T00Z_MSC_GDPS_WindV_IsbL-0001_LatLon0.15_PT150H.grib2 2026-04-30 04:36 710K
20260430T00Z_MSC_GDPS_WindV_IsbL-0005_LatLon0.15_PT150H.grib2 2026-04-30 04:36 850K
20260430T00Z_MSC_GDPS_WindV_IsbL-0010_LatLon0.15_PT150H.grib2 2026-04-30 04:36 876K
20260430T00Z_MSC_GDPS_WindV_IsbL-0020_LatLon0.15_PT150H.grib2 2026-04-30 04:36 924K
20260430T00Z_MSC_GDPS_WindV_IsbL-0030_LatLon0.15_PT150H.grib2 2026-04-30 04:36 926K
20260430T00Z_MSC_GDPS_WindV_IsbL-0050_LatLon0.15_PT150H.grib2 2026-04-30 04:36 889K
20260430T00Z_MSC_GDPS_WindV_IsbL-0100_LatLon0.15_PT150H.grib2 2026-04-30 04:36 1.0M
20260430T00Z_MSC_GDPS_WindV_IsbL-0150_LatLon0.15_PT150H.grib2 2026-04-30 04:36 1.0M
20260430T00Z_MSC_GDPS_WindV_IsbL-0175_LatLon0.15_PT150H.grib2 2026-04-30 04:36 1.0M
20260430T00Z_MSC_GDPS_WindV_IsbL-0200_LatLon0.15_PT150H.grib2 2026-04-30 04:36 1.0M
20260430T00Z_MSC_GDPS_WindV_IsbL-0225_LatLon0.15_PT150H.grib2 2026-04-30 04:36 842K
20260430T00Z_MSC_GDPS_WindV_IsbL-0250_LatLon0.15_PT150H.grib2 2026-04-30 04:36 841K
20260430T00Z_MSC_GDPS_WindV_IsbL-0275_LatLon0.15_PT150H.grib2 2026-04-30 04:36 868K
20260430T00Z_MSC_GDPS_WindV_IsbL-0300_LatLon0.15_PT150H.grib2 2026-04-30 04:36 859K
20260430T00Z_MSC_GDPS_WindV_IsbL-0350_LatLon0.15_PT150H.grib2 2026-04-30 04:36 872K
20260430T00Z_MSC_GDPS_WindV_IsbL-0400_LatLon0.15_PT150H.grib2 2026-04-30 04:36 874K
20260430T00Z_MSC_GDPS_WindV_IsbL-0450_LatLon0.15_PT150H.grib2 2026-04-30 04:36 1.1M
20260430T00Z_MSC_GDPS_WindV_IsbL-0500_LatLon0.15_PT150H.grib2 2026-04-30 04:36 1.1M
20260430T00Z_MSC_GDPS_WindV_IsbL-0550_LatLon0.15_PT150H.grib2 2026-04-30 04:36 1.1M
20260430T00Z_MSC_GDPS_WindV_IsbL-0600_LatLon0.15_PT150H.grib2 2026-04-30 04:36 1.1M
20260430T00Z_MSC_GDPS_WindV_IsbL-0650_LatLon0.15_PT150H.grib2 2026-04-30 04:36 1.2M
20260430T00Z_MSC_GDPS_WindV_IsbL-0700_LatLon0.15_PT150H.grib2 2026-04-30 04:36 1.2M
20260430T00Z_MSC_GDPS_WindV_IsbL-0750_LatLon0.15_PT150H.grib2 2026-04-30 04:36 1.3M
20260430T00Z_MSC_GDPS_WindV_IsbL-0800_LatLon0.15_PT150H.grib2 2026-04-30 04:36 1.3M
20260430T00Z_MSC_GDPS_WindV_IsbL-0850_LatLon0.15_PT150H.grib2 2026-04-30 04:36 1.4M
20260430T00Z_MSC_GDPS_WindV_IsbL-0875_LatLon0.15_PT150H.grib2 2026-04-30 04:36 1.4M
20260430T00Z_MSC_GDPS_WindV_IsbL-0900_LatLon0.15_PT150H.grib2 2026-04-30 04:36 1.4M
20260430T00Z_MSC_GDPS_WindV_IsbL-0925_LatLon0.15_PT150H.grib2 2026-04-30 04:36 1.4M
20260430T00Z_MSC_GDPS_WindV_IsbL-0950_LatLon0.15_PT150H.grib2 2026-04-30 04:36 1.4M
20260430T00Z_MSC_GDPS_WindV_IsbL-0970_LatLon0.15_PT150H.grib2 2026-04-30 04:36 1.4M
20260430T00Z_MSC_GDPS_WindV_IsbL-0985_LatLon0.15_PT150H.grib2 2026-04-30 04:36 1.4M
20260430T00Z_MSC_GDPS_WindV_IsbL-1000_LatLon0.15_PT150H.grib2 2026-04-30 04:36 1.4M
20260430T00Z_MSC_GDPS_WindV_IsbL-1015_LatLon0.15_PT150H.grib2 2026-04-30 04:36 1.3M